Location: Unspecified
(0.0000°N, 0.0000°E)
Time: 02:40:11
(UTC+01:00)

Cosmos 1536 - Visible Passes

Search period start: 14 February 2016 00:00
Search period end: 24 February 2016 00:00
Orbit: 545 x 561 km, 82.5° (Epoch: 12 February)

Date Brightness Start Highest point End Pass type
(mag) Time Alt. Az. Time Alt. Az. Time Alt. Az.
14 Feb 4.6 19:56:50 10° ESE 19:58:31 13° E 19:58:31 13° E visible
14 Feb 5.5 21:32:10 10° SW 21:34:22 18° W 21:34:22 18° W visible
15 Feb 4.4 19:52:57 10° SE 19:55:22 15° E 19:56:28 14° ENE visible
15 Feb 5.6 21:29:05 10° SW 21:31:33 16° W 21:32:20 15° WNW visible
16 Feb 4.3 19:49:11 10° SE 19:51:57 18° E 19:54:38 10° NE visible
16 Feb 5.9 21:26:05 10° WSW 21:28:08 14° W 21:30:11 10° NW visible
17 Feb 4.1 19:45:29 10° SE 19:48:32 21° E 19:51:35 10° NE visible
17 Feb 6.0 21:23:17 10° WSW 21:24:44 12° W 21:26:09 10° WNW visible
18 Feb 3.9 19:41:50 10° SSE 19:45:07 24° E 19:48:23 10° NE visible
19 Feb 3.7 19:38:13 10° SSE 19:41:41 28° E 19:45:09 10° NE visible
20 Feb 3.5 19:34:38 10° SSE 19:38:16 32° E 19:41:53 10° NNE visible
21 Feb 3.3 19:31:04 10° SSE 19:34:50 38° E 19:38:35 10° NNE visible
